ONEWEB-0159

Last updated on April 25, 2021, 12:02 a.m. UTC

1 48062U 21025W   21114.58336806 -.01054002  00000-0 -41357-1 0  9993
2 48062  87.4164 339.3474 0008129 132.2758  98.2663 15.28557498  1787
UTC
Height (km)
Latitude
Longitude
Inclination
Orbital Period
UTC large
Height (km)
Speed (km/s)
/
Latitude / Longitude
Inclination (degrees)
Orbital Period (minutes)
Azimuth
Elevation
Range (km)
Doppler Factor
iOS Compass Heading
iOS Angle

Next 30 passes for location: Hong Kong

Rise time Rise Azimuth (degrees) Set time Set Azimuth (degrees) Duration Max altitude (degrees)

No matching passes for this satellites